Regional Weather Roundup
Issued by NWS

Home | Current Version | Previous Version | Text Only | Print | Product List | Glossary Off
Versions: 1 2 3 4 5 6 7 8 9 10 11 12 13 14 15 16 17 18 19 20 21 22 23 24 25 26 27 28 29 30 31 32 33 34 35 36 37 38 39 40 41 42 43 44 45 46 47 48 49 50

000
ASUS44 KMEG 090600
RWRTN
TENNESSEE HOURLY STATE WEATHER ROUNDUP
NATIONAL WEATHER SERVICE MEMPHIS TN
1200 AM CST TUE FEB 09 2016

TNZ002-004-019-021-049-052-054-088>092-090700-
WEST TENNESSEE

CITY           SKY/WX    TMP DP  RH WIND       PRES   REMARKS
MEMPHIS INTL   CLOUDY    36  20  52 NW6       29.97F WCI  31
NWS MEMPHIS      N/A     35 N/A N/A MISG        N/A
JACKSON        CLOUDY    32  20  61 NW15      29.94F WCI  22
DYERSBURG      CLOUDY    30  18  59 W13G20    29.97F WCI  20
UNION CITY     CLOUDY    28  16  59 NW10      29.92S WCI  19
PARIS          CLOUDY    25  18  74 W7        29.90F WCI  17
$$

TNZ008-025-027-028-033-062-065-066-090700-
NORTH MIDDLE TENNESSEE

CITY           SKY/WX    TMP DP  RH WIND       PRES   REMARKS
NASHVILLE      LGT SNOW  27  20  75 NW8       29.89S WCI  19
CLARKSVILLE    CLOUDY    26  19  74 NW8       29.89F WCI  18
COOKEVILLE     CLOUDY    27  19  74 NW9       29.81F WCI  17
CROSSVILLE     LGT SNOW  24  18  77 W10       29.75F WCI  14
$$

TNZ061-075-076-078-094-096-097-090700-
SOUTH MIDDLE TENNESSEE

CITY           SKY/WX    TMP DP  RH WIND       PRES   REMARKS
TULLAHOMA      CLOUDY    27  27 100 W12       29.84F WCI  16
WINCHESTER     CLOUDY    28  21  74 NW10      29.85F WCI  19
COLUMBIA       CLOUDY    28  23  80 NW5       29.87S WCI  23
SHELBYVILLE    MOCLDY    30  27  86 W15       29.87F WCI  19
$$

TNZ017-018-042-046-047-090700-
NORTHEAST TENNESSEE

CITY           SKY/WX    TMP DP  RH WIND       PRES   REMARKS
TRI CITIES     LGT SNOW  29  25  85 W16       29.69R VSB 1   WCI  17
$$

TNZ012-013-036-069-073-074-090700-
CENTRAL EAST TENNESSEE

CITY           SKY/WX    TMP DP  RH WIND       PRES   REMARKS
KNOXVILLE      CLOUDY    30  20  66 W12       29.78F WCI  20
OAK RIDGE      CLOUDY    30  22  72 W8        29.79F WCI  22
GATLINBURG     CLOUDY    28  21  74 W6        29.76F WCI  22
$$

TNZ083-085-099-090700-
SOUTHEAST TENNESSEE

CITY           SKY/WX    TMP DP  RH WIND       PRES   REMARKS
CHATTANOOGA    CLOUDY    33  22  63 W14       29.84S WCI  23
$$

SKY/WX REPORTED AS FAIR MEANS FEW OR NO CLOUDS BELOW
12 THOUSAND FEET.




USA.gov is the U.S. government's official web portal to all federal, state and local government web resources and services.